Back to catalog

CZ-3B DEB

AliveGTO
NORAD 40849·DEBRIS·🇨🇳 China

Launched Dec 19, 2011 from Xichang Satellite Launch Center

Loading…

TLE

FreshSource: Space-Track

Epoch: Sep 14, 2026, 13:02 UTC

1 40849U 11077AE  26257.54343006 -.00000244  00000-0 -22157-2 0  9999
2 40849  26.4486 321.8672 7389206 103.9841 340.8139  1.90650432 93647

Track CZ-3B DEB in real time with AllMySat

Download on the App Store